Tracking 29489 objects as of 9-Sep-2024
HD Live streaming from Space Station
objects crossing your sky now

FENGYUN 1C DEB

Track FENGYUN 1C DEB now!
10-day predictions


NORAD ID: 32451
Int'l Code: 1999-025DBP
Perigee: 820.4 km
Apogee: 1,113.1 km
Inclination: 99.9 °
Period: 104.3 minutes
Semi major axis: 7337 km
RCS: 0.0193 m2 (small)
Launch date: May 10, 1999
Source: People's Republic of China (PRC)
Launch site: Taiyaun Space Center, China (TSC)

Note: This is SATELLITE DEBRIS
Your satellite tracking list
Your tracking list is empty




NASA's NSSDC Master Catalog

Two Line Element Set (TLE):
1 32451U 99025DBP 24253.09763987  .00015981  00000-0  12982-1 0  9992
2 32451  99.9482 199.2821 0199495 315.3955  43.1291 13.81202416860606
Source of the keplerian elements: AFSPC